This is the latest recevied weather packets stored in our database for station/object DL9GRB-13. If no packets are shown the sender has not sent any weather packets the latest 10 day(s).
| Time | Temp. | Humidity | Pressure | Rain* | Wind** | Luminosity | Snow |
|---|---|---|---|---|---|---|---|
| 1777653787 | 20.56° C | 36% | 1024.5 hPa | 0 mm | - | 72 W/m² | - |
| 1777653607 | 20.56° C | 36% | 1024.5 hPa | 0 mm | - | 68 W/m² | - |
| 1777653427 | 20.56° C | 36% | 1024.6 hPa | 0 mm | - | 89 W/m² | - |
| 1777653247 | 20° C | 36% | 1024.7 hPa | 0 mm | - | 96 W/m² | - |
| 1777653067 | 20° C | 35% | 1024.7 hPa | 0 mm | - | 99 W/m² | - |
| 1777652887 | 20.56° C | 35% | 1024.8 hPa | 0 mm | - | 100 W/m² | - |
| 1777652707 | 20° C | 36% | 1024.7 hPa | 0 mm | - | 100 W/m² | - |
| 1777652526 | 20° C | 37% | 1024.8 hPa | 0 mm | - | 84 W/m² | - |
| 1777652347 | 20° C | 35% | 1024.8 hPa | 0 mm | - | 103 W/m² | - |
| 1777652167 | 20° C | 36% | 1024.8 hPa | 0 mm | - | 99 W/m² | - |
| 1777651987 | 20° C | 35% | 1024.9 hPa | 0 mm | - | 64 W/m² | - |
| 1777651806 | 20° C | 35% | 1024.9 hPa | 0 mm | - | 68 W/m² | - |
| 1777651627 | 20.56° C | 34% | 1024.9 hPa | 0 mm | - | 96 W/m² | - |
| 1777651447 | 20.56° C | 35% | 1025.1 hPa | 0 mm | - | 111 W/m² | - |
| 1777651267 | 20.56° C | 35% | 1025.3 hPa | 0 mm | - | 122 W/m² | - |
| 1777651087 | 21.11° C | 35% | 1025.3 hPa | 0 mm | - | 139 W/m² | - |
| 1777650907 | 21.11° C | 34% | 1025.3 hPa | 0 mm | - | 160 W/m² | - |
| 1777650727 | 21.11° C | 33% | 1025.2 hPa | 0 mm | - | 179 W/m² | - |
| 1777650547 | 21.11° C | 34% | 1025.4 hPa | 0 mm | - | 198 W/m² | - |
| 1777650367 | 21.11° C | 35% | 1025.4 hPa | 0 mm | - | 214 W/m² | - |
| 1777650187 | 20.56° C | 36% | 1025.3 hPa | 0 mm | - | 230 W/m² | - |
| 1777650007 | 20.56° C | 36% | 1025.3 hPa | 0 mm | - | 244 W/m² | - |
| 1777649827 | 20.56° C | 35% | 1025.6 hPa | 0 mm | - | 258 W/m² | - |
| 1777649647 | 20.56° C | 35% | 1025.5 hPa | 0 mm | - | 273 W/m² | - |
| 1777649467 | 20.56° C | 35% | 1025.5 hPa | 0 mm | - | 285 W/m² | - |
* Rain latest hour (hover to see other rain measurements)
** Current wind speed in m/s (hover to see current wind gust speed)